Time,TemperatureF,DewpointF,PressureIn,WindDirection,WindDirectionDegrees,WindSpeedMPH,WindSpeedGustMPH,Humidity,HourlyPrecipIn,Conditions,Clouds,dailyrainin,SoftwareType,DateUTC
2013-03-17 00:00:00,40.0,35.9,29.96,NNW,337,3.0,15.0,85,0.00,,,0.00,Weather View 32 v70,2013-03-17 04:00:00,
2013-03-17 00:05:00,40.0,35.6,29.96,NNE,22,3.0,15.0,84,0.00,,,0.00,Weather View 32 v70,2013-03-17 04:05:00,
2013-03-17 00:14:00,39.0,34.6,29.95,NNW,337,7.0,15.0,84,0.00,,,0.00,Weather View 32 v70,2013-03-17 04:14:00,
2013-03-17 00:19:00,39.0,34.9,29.95,North,360,9.0,15.0,85,0.00,,,0.00,Weather View 32 v70,2013-03-17 04:19:00,
2013-03-17 00:25:00,39.0,34.9,29.95,NNE,22,4.0,15.0,85,0.00,,,0.00,Weather View 32 v70,2013-03-17 04:25:00,
2013-03-17 00:30:00,39.0,34.9,29.96,North,360,3.0,15.0,85,0.00,,,0.00,Weather View 32 v70,2013-03-17 04:30:00,
2013-03-17 00:39:00,39.0,34.9,29.96,North,360,5.0,15.0,85,0.00,,,0.00,Weather View 32 v70,2013-03-17 04:39:00,
2013-03-17 00:45:00,39.0,34.9,29.96,NNW,337,4.0,13.0,85,0.00,,,0.00,Weather View 32 v70,2013-03-17 04:45:00,
2013-03-17 00:50:00,39.0,34.9,29.96,NNE,22,9.0,13.0,85,0.00,,,0.00,Weather View 32 v70,2013-03-17 04:50:00,
2013-03-17 00:55:00,39.0,34.9,29.96,NNW,337,3.0,13.0,85,0.00,,,0.00,Weather View 32 v70,2013-03-17 04:55:00,
2013-03-17 00:59:00,39.0,34.9,29.95,North,360,8.0,13.0,85,0.00,,,0.00,Weather View 32 v70,2013-03-17 04:59:00,
2013-03-17 01:05:00,39.0,34.9,29.95,North,360,6.0,13.0,85,0.00,,,0.00,Weather View 32 v70,2013-03-17 05:05:00,
2013-03-17 01:10:00,39.0,35.2,29.94,North,360,6.0,13.0,86,0.00,,,0.00,Weather View 32 v70,2013-03-17 05:10:00,
2013-03-17 01:19:00,39.0,35.2,29.94,North,360,6.0,12.0,86,0.00,,,0.00,Weather View 32 v70,2013-03-17 05:19:00,
2013-03-17 01:24:00,39.0,35.2,29.94,North,360,7.0,12.0,86,0.00,,,0.00,Weather View 32 v70,2013-03-17 05:24:00,
2013-03-17 01:30:00,39.0,35.2,29.94,NNE,22,9.0,12.0,86,0.00,,,0.00,Weather View 32 v70,2013-03-17 05:30:00,
2013-03-17 01:40:00,38.0,34.2,29.94,NNE,22,7.0,12.0,86,0.00,,,0.00,Weather View 32 v70,2013-03-17 05:40:00,
2013-03-17 01:45:00,38.0,34.2,29.93,North,360,6.0,12.0,86,0.00,,,0.00,Weather View 32 v70,2013-03-17 05:45:00,
2013-03-17 01:52:00,38.0,34.2,29.93,North,360,10.0,12.0,86,0.00,,,0.00,Weather View 32 v70,2013-03-17 05:52:00,
2013-03-17 01:59:00,38.0,34.2,29.92,NE,45,11.0,14.0,86,0.00,,,0.00,Weather View 32 v70,2013-03-17 05:59:00,
2013-03-17 02:04:00,38.0,33.9,29.92,NNE,22,7.0,14.0,85,0.00,,,0.00,Weather View 32 v70,2013-03-17 06:04:00,
2013-03-17 02:10:00,38.0,33.9,29.93,North,360,6.0,14.0,85,0.00,,,0.00,Weather View 32 v70,2013-03-17 06:10:00,
2013-03-17 02:15:00,38.0,33.9,29.94,North,360,5.0,14.0,85,0.00,,,0.00,Weather View 32 v70,2013-03-17 06:15:00,
2013-03-17 02:20:00,38.0,33.9,29.95,North,360,4.0,14.0,85,0.00,,,0.00,Weather View 32 v70,2013-03-17 06:20:00,
2013-03-17 02:29:00,38.0,33.9,29.95,North,360,6.0,14.0,85,0.00,,,0.00,Weather View 32 v70,2013-03-17 06:29:00,
2013-03-17 02:35:00,38.0,33.9,29.95,North,360,6.0,14.0,85,0.00,,,0.00,Weather View 32 v70,2013-03-17 06:35:00,
2013-03-17 02:40:00,38.0,34.2,29.95,NNE,22,6.0,14.0,86,0.00,,,0.00,Weather View 32 v70,2013-03-17 06:40:00,
2013-03-17 02:49:00,38.0,35.0,29.95,NNE,22,7.0,14.0,89,0.00,,,0.00,Weather View 32 v70,2013-03-17 06:49:00,
2013-03-17 02:55:00,38.0,35.3,29.94,North,360,6.0,14.0,90,0.00,,,0.00,Weather View 32 v70,2013-03-17 06:55:00,
2013-03-17 03:00:00,38.0,35.3,29.94,North,360,9.0,14.0,90,0.00,,,0.00,Weather View 32 v70,2013-03-17 07:00:00,
2013-03-17 03:09:00,38.0,35.0,29.95,North,360,6.0,12.0,89,0.00,,,0.00,Weather View 32 v70,2013-03-17 07:09:00,
2013-03-17 03:14:00,38.0,35.0,29.95,NE,45,5.0,12.0,89,0.00,,,0.00,Weather View 32 v70,2013-03-17 07:14:00,
2013-03-17 03:20:00,38.0,35.0,29.95,NNE,22,3.0,12.0,89,0.00,,,0.00,Weather View 32 v70,2013-03-17 07:20:00,
2013-03-17 03:25:00,37.0,34.1,29.95,North,360,4.0,12.0,89,0.00,,,0.00,Weather View 32 v70,2013-03-17 07:25:00,
2013-03-17 03:30:00,37.0,33.8,29.95,North,360,3.0,12.0,88,0.00,,,0.00,Weather View 32 v70,2013-03-17 07:30:00,
2013-03-17 03:39:00,37.0,33.8,29.94,NNE,22,5.0,12.0,88,0.00,,,0.00,Weather View 32 v70,2013-03-17 07:39:00,
2013-03-17 03:44:00,37.0,33.8,29.94,North,360,5.0,12.0,88,0.00,,,0.00,Weather View 32 v70,2013-03-17 07:44:00,
2013-03-17 03:50:00,37.0,33.8,29.94,North,360,7.0,12.0,88,0.00,,,0.00,Weather View 32 v70,2013-03-17 07:50:00,
2013-03-17 03:59:00,37.0,33.8,29.96,NNE,22,6.0,12.0,88,0.00,,,0.00,Weather View 32 v70,2013-03-17 07:59:00,
2013-03-17 04:05:00,37.0,33.8,29.96,North,360,6.0,12.0,88,0.00,,,0.00,Weather View 32 v70,2013-03-17 08:05:00,
2013-03-17 04:10:00,37.0,34.1,29.96,NNW,337,5.0,12.0,89,0.00,,,0.00,Weather View 32 v70,2013-03-17 08:10:00,
2013-03-17 04:19:00,37.0,35.2,29.95,North,360,5.0,12.0,93,0.00,,,0.00,Weather View 32 v70,2013-03-17 08:19:00,
2013-03-17 04:24:00,37.0,35.4,29.95,NNE,22,6.0,12.0,94,0.00,,,0.00,Weather View 32 v70,2013-03-17 08:24:00,
2013-03-17 04:30:00,37.0,35.7,29.95,North,360,6.0,12.0,95,0.00,,,0.00,Weather View 32 v70,2013-03-17 08:30:00,
2013-03-17 04:35:00,37.0,35.7,29.95,North,360,6.0,12.0,95,0.00,,,0.00,Weather View 32 v70,2013-03-17 08:35:00,
2013-03-17 04:44:00,36.0,35.2,29.94,North,360,4.0,12.0,97,0.00,,,0.00,Weather View 32 v70,2013-03-17 08:44:00,
2013-03-17 04:49:00,36.0,35.0,29.96,North,360,5.0,12.0,96,0.00,,,0.00,Weather View 32 v70,2013-03-17 08:49:00,
2013-03-17 04:55:00,36.0,35.2,29.97,North,360,6.0,12.0,97,0.00,,,0.00,Weather View 32 v70,2013-03-17 08:55:00,
2013-03-17 05:00:00,36.0,35.5,29.97,North,360,5.0,12.0,98,0.00,,,0.00,Weather View 32 v70,2013-03-17 09:00:00,
2013-03-17 05:05:00,36.0,36.0,29.97,North,360,5.0,12.0,100,0.01,,,0.01,Weather View 32 v70,2013-03-17 09:05:00,
2013-03-17 05:10:00,36.0,36.0,29.98,North,360,5.0,11.0,100,0.01,,,0.01,Weather View 32 v70,2013-03-17 09:10:00,
2013-03-17 05:19:00,35.0,35.0,29.98,North,360,4.0,11.0,100,0.01,,,0.01,Weather View 32 v70,2013-03-17 09:19:00,
2013-03-17 05:25:00,35.0,35.0,29.99,North,360,2.0,11.0,100,0.01,,,0.01,Weather View 32 v70,2013-03-17 09:25:00,
2013-03-17 05:30:00,35.0,35.0,29.99,NNE,22,5.0,11.0,100,0.01,,,0.01,Weather View 32 v70,2013-03-17 09:30:00,
2013-03-17 05:35:00,35.0,35.0,29.99,NNE,22,4.0,10.0,100,0.01,,,0.01,Weather View 32 v70,2013-03-17 09:35:00,
2013-03-17 05:44:00,35.0,35.0,29.99,North,360,5.0,9.0,100,0.02,,,0.02,Weather View 32 v70,2013-03-17 09:44:00,
2013-03-17 05:50:00,35.0,35.0,29.99,ENE,67,5.0,9.0,100,0.02,,,0.02,Weather View 32 v70,2013-03-17 09:50:00,
2013-03-17 05:55:00,35.0,35.0,29.98,ENE,67,6.0,9.0,100,0.02,,,0.02,Weather View 32 v70,2013-03-17 09:55:00,
2013-03-17 06:00:00,35.0,35.0,29.98,NNE,22,3.0,9.0,100,0.03,,,0.03,Weather View 32 v70,2013-03-17 10:00:00,
2013-03-17 06:05:00,34.0,34.0,29.98,NNE,22,0.0,9.0,100,0.02,,,0.03,Weather View 32 v70,2013-03-17 10:05:00,
2013-03-17 06:14:00,34.0,34.0,29.98,East,90,0.0,9.0,100,0.02,,,0.03,Weather View 32 v70,2013-03-17 10:14:00,
2013-03-17 06:19:00,34.0,34.0,29.98,East,90,0.0,9.0,100,0.02,,,0.03,Weather View 32 v70,2013-03-17 10:19:00,
2013-03-17 06:25:00,34.0,34.0,29.98,East,90,4.0,9.0,100,0.02,,,0.03,Weather View 32 v70,2013-03-17 10:25:00,
2013-03-17 06:30:00,34.0,34.0,29.98,ESE,112,3.0,9.0,100,0.02,,,0.03,Weather View 32 v70,2013-03-17 10:30:00,
2013-03-17 06:39:00,34.0,34.0,29.98,North,360,6.0,9.0,100,0.01,,,0.03,Weather View 32 v70,2013-03-17 10:39:00,
2013-03-17 06:44:00,34.0,34.0,29.99,NE,45,0.0,9.0,100,0.01,,,0.03,Weather View 32 v70,2013-03-17 10:44:00,
2013-03-17 06:49:00,34.0,34.0,29.99,NE,45,2.0,9.0,100,0.01,,,0.03,Weather View 32 v70,2013-03-17 10:49:00,
2013-03-17 06:55:00,34.0,34.0,30.00,NE,45,3.0,9.0,100,0.01,,,0.03,Weather View 32 v70,2013-03-17 10:55:00,
2013-03-17 07:04:00,34.0,34.0,29.99,North,360,7.0,9.0,100,0.01,,,0.04,Weather View 32 v70,2013-03-17 11:04:00,
2013-03-17 07:09:00,34.0,34.0,30.01,NNE,22,5.0,9.0,100,0.01,,,0.04,Weather View 32 v70,2013-03-17 11:09:00,
2013-03-17 07:14:00,34.0,34.0,30.00,NNE,22,6.0,9.0,100,0.01,,,0.04,Weather View 32 v70,2013-03-17 11:14:00,
2013-03-17 07:19:00,34.0,34.0,30.00,NE,45,4.0,9.0,100,0.01,,,0.04,Weather View 32 v70,2013-03-17 11:19:00,
2013-03-17 07:25:00,35.0,35.0,30.00,North,360,5.0,11.0,100,0.01,,,0.04,Weather View 32 v70,2013-03-17 11:25:00,
2013-03-17 07:34:00,35.0,35.0,30.02,North,360,4.0,13.0,100,0.01,,,0.04,Weather View 32 v70,2013-03-17 11:34:00,
2013-03-17 07:39:00,35.0,35.0,30.02,NNE,22,6.0,13.0,100,0.01,,,0.04,Weather View 32 v70,2013-03-17 11:39:00,
2013-03-17 07:45:00,35.0,35.0,30.03,NNE,22,4.0,13.0,100,0.01,,,0.04,Weather View 32 v70,2013-03-17 11:45:00,
2013-03-17 07:55:00,35.0,35.0,30.03,NE,45,6.0,13.0,100,0.01,,,0.04,Weather View 32 v70,2013-03-17 11:55:00,
2013-03-17 08:00:00,35.0,35.0,30.03,NNE,22,5.0,13.0,100,0.00,,,0.04,Weather View 32 v70,2013-03-17 12:00:00,
2013-03-17 08:09:00,35.0,35.0,30.03,NNE,22,7.0,13.0,100,0.00,,,0.04,Weather View 32 v70,2013-03-17 12:09:00,
2013-03-17 08:14:00,35.0,35.0,30.03,NNE,22,5.0,13.0,100,0.00,,,0.04,Weather View 32 v70,2013-03-17 12:14:00,
2013-03-17 08:19:00,35.0,35.0,30.03,NE,45,4.0,13.0,100,0.00,,,0.04,Weather View 32 v70,2013-03-17 12:19:00,
2013-03-17 08:24:00,35.0,35.0,30.03,ENE,67,6.0,13.0,100,0.00,,,0.04,Weather View 32 v70,2013-03-17 12:24:00,
2013-03-17 08:29:00,35.0,35.0,30.03,NNE,22,6.0,13.0,100,0.00,,,0.04,Weather View 32 v70,2013-03-17 12:29:00,
2013-03-17 08:35:00,35.0,35.0,30.02,NE,45,5.0,13.0,100,0.00,,,0.04,Weather View 32 v70,2013-03-17 12:35:00,
2013-03-17 08:44:00,35.0,35.0,30.02,NE,45,7.0,13.0,100,0.00,,,0.04,Weather View 32 v70,2013-03-17 12:44:00,
2013-03-17 08:49:00,35.0,35.0,30.02,North,360,6.0,13.0,100,0.00,,,0.04,Weather View 32 v70,2013-03-17 12:49:00,
2013-03-17 08:54:00,35.0,35.0,30.01,ENE,67,6.0,13.0,100,0.00,,,0.04,Weather View 32 v70,2013-03-17 12:54:00,
2013-03-17 08:59:00,35.0,34.2,30.01,North,360,5.0,13.0,97,0.00,,,0.04,Weather View 32 v70,2013-03-17 12:59:00,
2013-03-17 09:05:00,35.0,34.0,30.01,NE,45,4.0,13.0,96,0.00,,,0.04,Weather View 32 v70,2013-03-17 13:05:00,
2013-03-17 09:10:00,35.0,33.7,30.01,ENE,67,2.0,13.0,95,0.00,,,0.04,Weather View 32 v70,2013-03-17 13:10:00,
2013-03-17 09:20:00,35.0,34.0,30.01,North,360,3.0,13.0,96,0.00,,,0.04,Weather View 32 v70,2013-03-17 13:20:00,
2013-03-17 09:24:00,35.0,34.0,30.01,NNW,337,2.0,13.0,96,0.00,,,0.04,Weather View 32 v70,2013-03-17 13:24:00,
2013-03-17 09:30:00,35.0,34.2,30.01,NE,45,1.0,13.0,97,0.00,,,0.04,Weather View 32 v70,2013-03-17 13:30:00,
2013-03-17 09:39:00,35.0,34.7,30.01,NE,45,7.0,13.0,99,0.00,,,0.04,Weather View 32 v70,2013-03-17 13:39:00,
2013-03-17 09:44:00,35.0,34.7,30.01,NNE,22,5.0,13.0,99,0.00,,,0.04,Weather View 32 v70,2013-03-17 13:44:00,
2013-03-17 09:50:00,35.0,34.2,30.01,ENE,67,5.0,13.0,97,0.00,,,0.04,Weather View 32 v70,2013-03-17 13:50:00,
2013-03-17 09:55:00,35.0,34.7,30.01,NE,45,3.0,13.0,99,0.00,,,0.04,Weather View 32 v70,2013-03-17 13:55:00,
2013-03-17 10:04:00,34.0,34.0,30.01,ESE,112,9.0,12.0,100,0.00,,,0.04,Weather View 32 v70,2013-03-17 14:04:00,
2013-03-17 10:09:00,34.0,34.0,30.01,NE,45,5.0,12.0,100,0.00,,,0.04,Weather View 32 v70,2013-03-17 14:09:00,
2013-03-17 10:15:00,34.0,34.0,30.01,NNE,22,4.0,12.0,100,0.01,,,0.05,Weather View 32 v70,2013-03-17 14:15:00,
2013-03-17 10:20:00,34.0,34.0,30.01,NE,45,4.0,12.0,100,0.01,,,0.05,Weather View 32 v70,2013-03-17 14:20:00,
2013-03-17 10:29:00,34.0,34.0,30.01,NE,45,1.0,12.0,100,0.01,,,0.05,Weather View 32 v70,2013-03-17 14:29:00,
2013-03-17 10:34:00,34.0,34.0,30.01,East,90,3.0,12.0,100,0.01,,,0.05,Weather View 32 v70,2013-03-17 14:34:00,
2013-03-17 10:40:00,35.0,35.0,30.01,NE,45,6.0,12.0,100,0.01,,,0.05,Weather View 32 v70,2013-03-17 14:40:00,
2013-03-17 10:45:00,35.0,35.0,30.01,ENE,67,1.0,12.0,100,0.01,,,0.05,Weather View 32 v70,2013-03-17 14:45:00,
2013-03-17 10:50:00,35.0,35.0,30.01,North,360,5.0,12.0,100,0.01,,,0.05,Weather View 32 v70,2013-03-17 14:50:00,
2013-03-17 10:57:00,35.0,35.0,30.01,SE,135,0.0,12.0,100,0.01,,,0.05,Weather View 32 v70,2013-03-17 14:57:00,
2013-03-17 11:04:00,35.0,35.0,30.02,ESE,112,6.0,13.0,100,0.01,,,0.05,Weather View 32 v70,2013-03-17 15:04:00,
2013-03-17 11:10:00,35.0,35.0,30.02,NE,45,6.0,13.0,100,0.01,,,0.05,Weather View 32 v70,2013-03-17 15:10:00,
2013-03-17 11:19:00,36.0,36.0,30.02,ENE,67,1.0,13.0,100,0.00,,,0.05,Weather View 32 v70,2013-03-17 15:19:00,
2013-03-17 11:24:00,36.0,36.0,30.02,NE,45,7.0,13.0,100,0.00,,,0.05,Weather View 32 v70,2013-03-17 15:24:00,
2013-03-17 11:29:00,35.0,35.0,30.02,NE,45,9.0,13.0,100,0.00,,,0.05,Weather View 32 v70,2013-03-17 15:29:00,
2013-03-17 11:34:00,35.0,35.0,30.02,SE,135,6.0,13.0,100,0.00,,,0.05,Weather View 32 v70,2013-03-17 15:34:00,
2013-03-17 11:39:00,35.0,35.0,30.02,NE,45,5.0,13.0,100,0.00,,,0.05,Weather View 32 v70,2013-03-17 15:39:00,
2013-03-17 11:44:00,35.0,35.0,30.02,ENE,67,4.0,13.0,100,0.00,,,0.05,Weather View 32 v70,2013-03-17 15:44:00,
2013-03-17 11:50:00,35.0,35.0,30.02,ESE,112,2.0,13.0,100,0.00,,,0.05,Weather View 32 v70,2013-03-17 15:50:00,
2013-03-17 11:57:00,35.0,35.0,30.02,ESE,112,6.0,13.0,100,0.00,,,0.05,Weather View 32 v70,2013-03-17 15:57:00,
2013-03-17 12:05:00,35.0,35.0,30.02,NE,45,7.0,13.0,100,0.00,,,0.05,Weather View 32 v70,2013-03-17 16:05:00,
2013-03-17 12:10:00,35.0,35.0,30.03,North,360,1.0,12.0,100,0.00,,,0.05,Weather View 32 v70,2013-03-17 16:10:00,
2013-03-17 12:19:00,36.0,36.0,30.02,East,90,4.0,12.0,100,0.00,,,0.05,Weather View 32 v70,2013-03-17 16:19:00,
2013-03-17 12:24:00,36.0,36.0,30.02,East,90,3.0,12.0,100,0.00,,,0.05,Weather View 32 v70,2013-03-17 16:24:00,
2013-03-17 12:35:00,36.0,36.0,30.02,ENE,67,6.0,12.0,100,0.00,,,0.05,Weather View 32 v70,2013-03-17 16:35:00,
2013-03-17 12:44:00,36.0,35.5,30.02,NE,45,2.0,12.0,98,0.00,,,0.05,Weather View 32 v70,2013-03-17 16:44:00,
2013-03-17 12:49:00,36.0,35.5,30.02,NE,45,1.0,12.0,98,0.00,,,0.05,Weather View 32 v70,2013-03-17 16:49:00,
2013-03-17 12:54:00,37.0,36.0,30.02,North,360,5.0,12.0,96,0.00,,,0.05,Weather View 32 v70,2013-03-17 16:54:00,
2013-03-17 13:00:00,37.0,36.0,30.02,East,90,7.0,12.0,96,0.00,,,0.05,Weather View 32 v70,2013-03-17 17:00:00,
2013-03-17 13:09:00,37.0,35.7,30.02,NE,45,5.0,12.0,95,0.00,,,0.05,Weather View 32 v70,2013-03-17 17:09:00,
2013-03-17 13:14:00,37.0,35.7,30.02,SE,135,6.0,12.0,95,0.00,,,0.05,Weather View 32 v70,2013-03-17 17:14:00,
2013-03-17 13:19:00,37.0,35.4,30.02,ENE,67,2.0,12.0,94,0.00,,,0.05,Weather View 32 v70,2013-03-17 17:19:00,
2013-03-17 13:24:00,37.0,35.4,30.02,SSE,157,4.0,12.0,94,0.00,,,0.05,Weather View 32 v70,2013-03-17 17:24:00,
2013-03-17 13:30:00,37.0,35.2,30.02,ENE,67,6.0,12.0,93,0.00,,,0.05,Weather View 32 v70,2013-03-17 17:30:00,
2013-03-17 13:39:00,37.0,35.4,30.02,North,360,5.0,12.0,94,0.00,,,0.05,Weather View 32 v70,2013-03-17 17:39:00,
2013-03-17 13:44:00,37.0,35.7,30.02,NNE,22,4.0,12.0,95,0.00,,,0.05,Weather View 32 v70,2013-03-17 17:44:00,
2013-03-17 13:50:00,37.0,36.0,30.02,NE,45,7.0,12.0,96,0.00,,,0.05,Weather View 32 v70,2013-03-17 17:50:00,
2013-03-17 13:55:00,37.0,36.0,30.02,East,90,1.0,12.0,96,0.00,,,0.05,Weather View 32 v70,2013-03-17 17:55:00,
2013-03-17 14:04:00,36.0,36.0,30.02,NNE,22,4.0,12.0,100,0.00,,,0.05,Weather View 32 v70,2013-03-17 18:04:00,
2013-03-17 14:09:00,36.0,36.0,30.02,NE,45,3.0,12.0,100,0.00,,,0.05,Weather View 32 v70,2013-03-17 18:09:00,
2013-03-17 14:15:00,36.0,36.0,30.02,NE,45,3.0,12.0,100,0.00,,,0.05,Weather View 32 v70,2013-03-17 18:15:00,
2013-03-17 14:20:00,36.0,36.0,30.02,NNE,22,4.0,12.0,100,0.01,,,0.06,Weather View 32 v70,2013-03-17 18:20:00,
2013-03-17 14:25:00,35.0,35.0,30.01,NE,45,3.0,12.0,100,0.01,,,0.06,Weather View 32 v70,2013-03-17 18:25:00,
2013-03-17 14:34:00,35.0,35.0,30.01,North,360,6.0,12.0,100,0.02,,,0.07,Weather View 32 v70,2013-03-17 18:34:00,
2013-03-17 14:39:00,36.0,36.0,30.01,NE,45,6.0,12.0,100,0.02,,,0.07,Weather View 32 v70,2013-03-17 18:39:00,
2013-03-17 14:44:00,36.0,36.0,30.00,ENE,67,6.0,12.0,100,0.03,,,0.08,Weather View 32 v70,2013-03-17 18:44:00,
2013-03-17 14:50:00,36.0,36.0,30.00,SE,135,5.0,12.0,100,0.03,,,0.08,Weather View 32 v70,2013-03-17 18:50:00,
2013-03-17 14:59:00,36.0,36.0,29.99,SE,135,2.0,12.0,100,0.03,,,0.08,Weather View 32 v70,2013-03-17 18:59:00,
2013-03-17 15:04:00,36.0,36.0,29.99,ENE,67,5.0,12.0,100,0.03,,,0.08,Weather View 32 v70,2013-03-17 19:04:00,
2013-03-17 15:09:00,37.0,37.0,29.99,NE,45,6.0,12.0,100,0.03,,,0.08,Weather View 32 v70,2013-03-17 19:09:00,
2013-03-17 15:14:00,37.0,37.0,29.99,North,360,2.0,12.0,100,0.03,,,0.08,Weather View 32 v70,2013-03-17 19:14:00,
2013-03-17 15:19:00,37.0,37.0,29.99,NNE,22,6.0,10.0,100,0.02,,,0.08,Weather View 32 v70,2013-03-17 19:19:00,
2013-03-17 15:24:00,37.0,37.0,29.99,NE,45,5.0,10.0,100,0.02,,,0.08,Weather View 32 v70,2013-03-17 19:24:00,
2013-03-17 15:30:00,37.0,37.0,29.98,NE,45,8.0,10.0,100,0.01,,,0.08,Weather View 32 v70,2013-03-17 19:30:00,
2013-03-17 15:39:00,37.0,37.0,29.97,NE,45,8.0,14.0,100,0.01,,,0.08,Weather View 32 v70,2013-03-17 19:39:00,
2013-03-17 15:44:00,37.0,37.0,29.97,NE,45,5.0,14.0,100,0.00,,,0.08,Weather View 32 v70,2013-03-17 19:44:00,
2013-03-17 15:49:00,37.0,37.0,29.97,NNW,337,2.0,14.0,100,0.00,,,0.08,Weather View 32 v70,2013-03-17 19:49:00,
2013-03-17 15:55:00,37.0,37.0,29.97,South,180,2.0,14.0,100,0.00,,,0.08,Weather View 32 v70,2013-03-17 19:55:00,
2013-03-17 16:00:00,37.0,37.0,29.96,East,90,7.0,14.0,100,0.00,,,0.08,Weather View 32 v70,2013-03-17 20:00:00,
2013-03-17 16:09:00,37.0,37.0,29.96,ENE,67,1.0,15.0,100,0.01,,,0.09,Weather View 32 v70,2013-03-17 20:09:00,
2013-03-17 16:14:00,37.0,37.0,29.96,NE,45,3.0,15.0,100,0.01,,,0.09,Weather View 32 v70,2013-03-17 20:14:00,
2013-03-17 16:19:00,37.0,37.0,29.96,SSE,157,0.0,15.0,100,0.01,,,0.09,Weather View 32 v70,2013-03-17 20:19:00,
2013-03-17 16:29:00,37.0,37.0,29.96,NNE,22,6.0,15.0,100,0.01,,,0.09,Weather View 32 v70,2013-03-17 20:29:00,
2013-03-17 16:34:00,37.0,37.0,29.96,NE,45,7.0,15.0,100,0.01,,,0.09,Weather View 32 v70,2013-03-17 20:34:00,
2013-03-17 16:39:00,37.0,37.0,29.95,North,360,7.0,15.0,100,0.01,,,0.09,Weather View 32 v70,2013-03-17 20:39:00,
2013-03-17 16:45:00,37.0,37.0,29.95,SSE,157,2.0,15.0,100,0.01,,,0.09,Weather View 32 v70,2013-03-17 20:45:00,
2013-03-17 16:50:00,37.0,37.0,29.95,SE,135,7.0,15.0,100,0.01,,,0.09,Weather View 32 v70,2013-03-17 20:50:00,
2013-03-17 16:59:00,37.0,37.0,29.94,East,90,5.0,15.0,100,0.01,,,0.09,Weather View 32 v70,2013-03-17 20:59:00,
2013-03-17 17:04:00,37.0,37.0,29.94,East,90,7.0,14.0,100,0.00,,,0.09,Weather View 32 v70,2013-03-17 21:04:00,
2013-03-17 17:09:00,37.0,37.0,29.94,NE,45,10.0,14.0,100,0.00,,,0.09,Weather View 32 v70,2013-03-17 21:09:00,
2013-03-17 17:15:00,37.0,37.0,29.93,ENE,67,3.0,14.0,100,0.00,,,0.09,Weather View 32 v70,2013-03-17 21:15:00,
2013-03-17 17:24:00,37.0,37.0,29.93,ESE,112,1.0,14.0,100,0.00,,,0.09,Weather View 32 v70,2013-03-17 21:24:00,
2013-03-17 17:29:00,37.0,37.0,29.93,NE,45,6.0,14.0,100,0.00,,,0.09,Weather View 32 v70,2013-03-17 21:29:00,
2013-03-17 17:34:00,37.0,37.0,29.93,NE,45,4.0,14.0,100,0.00,,,0.09,Weather View 32 v70,2013-03-17 21:34:00,
2013-03-17 17:39:00,37.0,37.0,29.93,SE,135,6.0,14.0,100,0.00,,,0.09,Weather View 32 v70,2013-03-17 21:39:00,
2013-03-17 17:45:00,37.0,37.0,29.92,East,90,4.0,16.0,100,0.00,,,0.09,Weather View 32 v70,2013-03-17 21:45:00,
2013-03-17 17:54:00,37.0,37.0,29.92,ENE,67,3.0,16.0,100,0.00,,,0.09,Weather View 32 v70,2013-03-17 21:54:00,
2013-03-17 17:59:00,37.0,37.0,29.92,NNE,22,4.0,16.0,100,0.00,,,0.09,Weather View 32 v70,2013-03-17 21:59:00,
2013-03-17 18:05:00,36.0,36.0,29.92,NE,45,9.0,16.0,100,0.00,,,0.09,Weather View 32 v70,2013-03-17 22:05:00,
2013-03-17 18:14:00,36.0,36.0,29.93,ENE,67,4.0,16.0,100,0.00,,,0.09,Weather View 32 v70,2013-03-17 22:14:00,
2013-03-17 18:19:00,36.0,36.0,29.93,NE,45,9.0,16.0,100,0.00,,,0.09,Weather View 32 v70,2013-03-17 22:19:00,
2013-03-17 18:24:00,36.0,36.0,29.93,SE,135,1.0,16.0,100,0.00,,,0.09,Weather View 32 v70,2013-03-17 22:24:00,
2013-03-17 18:29:00,36.0,36.0,29.93,NE,45,5.0,16.0,100,0.00,,,0.09,Weather View 32 v70,2013-03-17 22:29:00,
2013-03-17 18:34:00,36.0,36.0,29.93,NNW,337,2.0,16.0,100,0.00,,,0.09,Weather View 32 v70,2013-03-17 22:34:00,
2013-03-17 18:39:00,36.0,36.0,29.93,NE,45,8.0,16.0,100,0.00,,,0.09,Weather View 32 v70,2013-03-17 22:39:00,
2013-03-17 18:44:00,36.0,36.0,29.93,NE,45,4.0,16.0,100,0.00,,,0.09,Weather View 32 v70,2013-03-17 22:44:00,
2013-03-17 18:49:00,36.0,36.0,29.94,NE,45,1.0,16.0,100,0.00,,,0.09,Weather View 32 v70,2013-03-17 22:49:00,
2013-03-17 18:54:00,36.0,36.0,29.93,NE,45,5.0,16.0,100,0.00,,,0.09,Weather View 32 v70,2013-03-17 22:54:00,
2013-03-17 18:59:00,36.0,36.0,29.93,NE,45,2.0,16.0,100,0.00,,,0.09,Weather View 32 v70,2013-03-17 22:59:00,
2013-03-17 19:04:00,36.0,36.0,29.94,NE,45,7.0,16.0,100,0.00,,,0.09,Weather View 32 v70,2013-03-17 23:04:00,
2013-03-17 19:09:00,35.0,35.0,29.93,North,360,2.0,16.0,100,0.01,,,0.10,Weather View 32 v70,2013-03-17 23:09:00,
2013-03-17 19:14:00,35.0,35.0,29.93,ENE,67,0.0,16.0,100,0.01,,,0.10,Weather View 32 v70,2013-03-17 23:14:00,
2013-03-17 19:19:00,35.0,35.0,29.93,ENE,67,2.0,16.0,100,0.01,,,0.10,Weather View 32 v70,2013-03-17 23:19:00,
2013-03-17 19:24:00,35.0,35.0,29.93,NE,45,2.0,13.0,100,0.01,,,0.10,Weather View 32 v70,2013-03-17 23:24:00,
2013-03-17 19:29:00,35.0,35.0,29.93,ENE,67,5.0,13.0,100,0.01,,,0.10,Weather View 32 v70,2013-03-17 23:29:00,
2013-03-17 19:34:00,35.0,35.0,29.93,East,90,7.0,13.0,100,0.02,,,0.11,Weather View 32 v70,2013-03-17 23:34:00,
2013-03-17 19:39:00,35.0,35.0,29.92,NE,45,7.0,13.0,100,0.02,,,0.11,Weather View 32 v70,2013-03-17 23:39:00,
2013-03-17 19:44:00,35.0,35.0,29.91,NE,45,6.0,13.0,100,0.02,,,0.11,Weather View 32 v70,2013-03-17 23:44:00,
2013-03-17 19:49:00,35.0,35.0,29.90,ENE,67,11.0,13.0,100,0.03,,,0.12,Weather View 32 v70,2013-03-17 23:49:00,
2013-03-17 19:54:00,35.0,35.0,29.90,ENE,67,7.0,13.0,100,0.03,,,0.12,Weather View 32 v70,2013-03-17 23:54:00,
2013-03-17 19:59:00,35.0,35.0,29.91,ENE,67,4.0,13.0,100,0.04,,,0.13,Weather View 32 v70,2013-03-17 23:59:00,
2013-03-17 20:04:00,35.0,35.0,29.91,East,90,0.0,13.0,100,0.04,,,0.13,Weather View 32 v70,2013-03-18 00:04:00,
2013-03-17 20:09:00,35.0,35.0,29.92,ESE,112,3.0,12.0,100,0.03,,,0.13,Weather View 32 v70,2013-03-18 00:09:00,
2013-03-17 20:14:00,35.0,35.0,29.92,ENE,67,9.0,12.0,100,0.04,,,0.14,Weather View 32 v70,2013-03-18 00:14:00,
2013-03-17 20:19:00,35.0,35.0,29.93,NNE,22,3.0,12.0,100,0.04,,,0.14,Weather View 32 v70,2013-03-18 00:19:00,
2013-03-17 20:24:00,34.0,34.0,29.93,SE,135,0.0,12.0,100,0.05,,,0.15,Weather View 32 v70,2013-03-18 00:24:00,
2013-03-17 20:29:00,34.0,34.0,29.93,ENE,67,1.0,12.0,100,0.06,,,0.16,Weather View 32 v70,2013-03-18 00:29:00,
2013-03-17 20:34:00,34.0,34.0,29.93,ENE,67,5.0,12.0,100,0.05,,,0.16,Weather View 32 v70,2013-03-18 00:34:00,
2013-03-17 20:40:00,34.0,34.0,29.92,NE,45,7.0,12.0,100,0.06,,,0.17,Weather View 32 v70,2013-03-18 00:40:00,
2013-03-17 20:49:00,34.0,34.0,29.90,NE,45,2.0,14.0,100,0.06,,,0.18,Weather View 32 v70,2013-03-18 00:49:00,
2013-03-17 20:54:00,34.0,34.0,29.89,East,90,5.0,15.0,100,0.07,,,0.19,Weather View 32 v70,2013-03-18 00:54:00,
2013-03-17 20:59:00,34.0,34.0,29.89,ENE,67,7.0,15.0,100,0.07,,,0.20,Weather View 32 v70,2013-03-18 00:59:00,
2013-03-17 21:05:00,34.0,34.0,29.88,ENE,67,4.0,15.0,100,0.08,,,0.21,Weather View 32 v70,2013-03-18 01:05:00,
2013-03-17 21:15:00,34.0,34.0,29.88,NE,45,6.0,15.0,100,0.08,,,0.22,Weather View 32 v70,2013-03-18 01:15:00,
2013-03-17 21:24:00,34.0,34.0,29.88,ESE,112,6.0,15.0,100,0.07,,,0.22,Weather View 32 v70,2013-03-18 01:24:00,
2013-03-17 21:29:00,34.0,34.0,29.87,NE,45,7.0,15.0,100,0.06,,,0.22,Weather View 32 v70,2013-03-18 01:29:00,
2013-03-17 21:34:00,34.0,34.0,29.87,NE,45,6.0,15.0,100,0.07,,,0.23,Weather View 32 v70,2013-03-18 01:34:00,
2013-03-17 21:40:00,34.0,34.0,29.87,ENE,67,6.0,15.0,100,0.06,,,0.23,Weather View 32 v70,2013-03-18 01:40:00,
2013-03-17 21:49:00,34.0,34.0,29.88,East,90,5.0,15.0,100,0.07,,,0.25,Weather View 32 v70,2013-03-18 01:49:00,
2013-03-17 21:55:00,34.0,34.0,29.88,NNW,337,1.0,17.0,100,0.06,,,0.25,Weather View 32 v70,2013-03-18 01:55:00,
2013-03-17 22:03:00,34.0,34.0,29.87,ENE,67,5.0,17.0,100,0.05,,,0.25,Weather View 32 v70,2013-03-18 02:03:00,
2013-03-17 22:09:00,34.0,34.0,29.87,East,90,1.0,17.0,100,0.04,,,0.25,Weather View 32 v70,2013-03-18 02:09:00,
2013-03-17 22:14:00,34.0,34.0,29.87,NE,45,3.0,17.0,100,0.04,,,0.26,Weather View 32 v70,2013-03-18 02:14:00,
2013-03-17 22:19:00,34.0,34.0,29.87,East,90,5.0,17.0,100,0.04,,,0.26,Weather View 32 v70,2013-03-18 02:19:00,
2013-03-17 22:25:00,35.0,35.0,29.88,East,90,2.0,17.0,100,0.04,,,0.26,Weather View 32 v70,2013-03-18 02:25:00,
2013-03-17 22:34:00,34.0,34.0,29.88,NW,315,1.0,17.0,100,0.04,,,0.27,Weather View 32 v70,2013-03-18 02:34:00,
2013-03-17 22:39:00,34.0,34.0,29.89,NE,45,4.0,17.0,100,0.05,,,0.28,Weather View 32 v70,2013-03-18 02:39:00,
2013-03-17 22:44:00,34.0,34.0,29.90,ENE,67,6.0,17.0,100,0.06,,,0.30,Weather View 32 v70,2013-03-18 02:44:00,
2013-03-17 22:54:00,34.0,34.0,29.88,SSE,157,2.0,17.0,100,0.07,,,0.32,Weather View 32 v70,2013-03-18 02:54:00,
2013-03-17 22:59:00,34.0,34.0,29.87,NE,45,7.0,15.0,100,0.09,,,0.34,Weather View 32 v70,2013-03-18 02:59:00,
2013-03-17 23:04:00,34.0,34.0,29.86,North,360,5.0,15.0,100,0.10,,,0.35,Weather View 32 v70,2013-03-18 03:04:00,
2013-03-17 23:14:00,34.0,34.0,29.84,NE,45,7.0,15.0,100,0.13,,,0.39,Weather View 32 v70,2013-03-18 03:14:00,
2013-03-17 23:19:00,34.0,34.0,29.84,East,90,7.0,15.0,100,0.14,,,0.40,Weather View 32 v70,2013-03-18 03:19:00,
2013-03-17 23:24:00,34.0,34.0,29.85,NNE,22,6.0,15.0,100,0.16,,,0.42,Weather View 32 v70,2013-03-18 03:24:00,
2013-03-17 23:29:00,34.0,34.0,29.85,North,360,3.0,15.0,100,0.17,,,0.44,Weather View 32 v70,2013-03-18 03:29:00,
2013-03-17 23:34:00,34.0,34.0,29.84,NE,45,7.0,17.0,100,0.19,,,0.46,Weather View 32 v70,2013-03-18 03:34:00,
2013-03-17 23:39:00,34.0,34.0,29.84,NE,45,4.0,17.0,100,0.19,,,0.47,Weather View 32 v70,2013-03-18 03:39:00,
2013-03-17 23:45:00,34.0,34.0,29.83,ESE,112,6.0,17.0,100,0.19,,,0.49,Weather View 32 v70,2013-03-18 03:45:00,
2013-03-17 23:54:00,34.0,34.0,29.83,NE,45,9.0,17.0,100,0.21,,,0.53,Weather View 32 v70,2013-03-18 03:54:00,
2013-03-17 23:59:00,34.0,34.0,29.82,ESE,112,5.0,17.0,100,0.21,,,0.00,Weather View 32 v70,2013-03-18 03:59:00,